Regional Weather Roundup
Issued by NWS

Home | Current Version | Previous Version | Text Only | Print | Product List | Glossary Off
Versions: 1 2 3 4 5 6 7 8 9 10 11 12 13 14 15 16 17 18 19 20 21 22 23 24 25 26 27 28 29 30 31 32 33 34 35 36 37 38 39 40 41 42 43 44 45 46 47 48 49 50

000
ASUS43 KDTX 261810
RWRMI
MICHIGAN HOURLY REGIONAL WEATHER ROUNDUP
NATIONAL WEATHER SERVICE DETROIT/PONTIAC MI
100 PM EST THU FEB 26 2015

NOTE: "FAIR" INDICATES FEW OR NO CLOUDS BELOW 12,000 FEET WITH NO
SIGNIFICANT WEATHER AND/OR OBSTRUCTION TO VISIBILITY.

MIZ047>049-052>055-059>063-066>070-074>076-081>083-261900-
SOUTHEAST LOWER MICHIGAN

CITY           SKY/WX    TMP DP  RH WIND       PRES   REMARKS
ADRIAN         FLURRIES  15   5  64 NE6       30.16S WCI   6
6HR MIN TEMP:   8; 6HR MAX TEMP:  15; 6HR PCP: TRACE;

ALMA           SUNNY      7  -5  57 NW10      30.21F WCI  -7
ANN ARBOR      LGT SNOW  13   3  64 N8        30.15R WCI   2
BAD AXE        PTSUNNY    9   1  69 N10       30.18S WCI  -5
CARO           CLOUDY    10   2  71 NW8       30.19F WCI  -2
DETROIT CITY   CLOUDY    16   5  62 NW7       30.15F HAZE    WCI   6
6HR MIN TEMP:   8; 6HR MAX TEMP:  16; 6HR PCP: TRACE;

DETROIT        LGT SNOW  16   5  62 N8        30.16F WCI   5
6HR MIN TEMP:   9; 6HR MAX TEMP:  16; 6HR PCP:  0.03;

FLINT          FLURRIES  12   1  61 N12       30.17F WCI  -2
6HR MIN TEMP:   6; 6HR MAX TEMP:  12; 6HR PCP:  0.01;

GROSSE ILE     CLOUDY    16   3  57 N9        30.15S HAZE    WCI   4
HILLSDALE      MOSUNNY   13   3  64 N5        30.12R WCI   5
HOWELL         PTSUNNY    8   0  68 N6        30.15S WCI  -2
6HR MIN TEMP:   5; 6HR MAX TEMP:   8;


CITY           SKY/WX    TMP DP  RH WIND       PRES   REMARKS
JACKSON        CLOUDY    13   3  64 N6        30.14F HAZE    WCI   4
6HR MIN TEMP:   8; 6HR MAX TEMP:  13; 6HR PCP:  0.01;

LAMBERTVILLE   CLOUDY    18   5  57 NE6       30.16S WCI   9
LANSING        MOSUNNY   10  -2  58 NE9       30.19S WCI  -3
6HR MIN TEMP:   5; 6HR MAX TEMP:  10; 6HR PCP:  0.02;

LAPEER         CLOUDY    10   1  66 N6        30.16S WCI   1
MASON          CLOUDY    10   0  64 N7        30.16S WCI  -1
6HR MIN TEMP:   5; 6HR MAX TEMP:  10;

MONROE         LGT SNOW  14   7  73 N8        30.14F WCI   3
MT. CLEMENS    LGT SNOW  13   5  70 N13       30.13F HAZE    WCI  -2
6HR MIN TEMP:   4; 6HR MAX TEMP:  13; 6HR PCP:  0.01;

PONTIAC        LGT SNOW  11   3  70 NW8       30.12F WCI  -1
6HR MIN TEMP:   6; 6HR MAX TEMP:  11; 6HR PCP: TRACE;

PORT HOPE        N/A     10   0  63 NE15      30.19S WCI  -7
6HR MIN TEMP:   8; 6HR MAX TEMP:  10;

PORT HURON     CLOUDY    12   5  73 NW6       30.16S WCI   3
TRI CITIES     SUNNY     11   0  61 NE8       30.22S WCI  -1
6HR MIN TEMP:   4; 6HR MAX TEMP:  11;

TROY           CLOUDY    16   5  62 N5        30.17S HAZE    WCI   9
SAGINAW HB     SUNNY     10   3  72 N8        30.21F WCI  -1
$$
MIZ043>046-050>051-056>058-064>065-071>073-077>080-261900-
SOUTHWEST LOWER MICHIGAN

CITY           SKY/WX    TMP DP  RH WIND       PRES   REMARKS
BATTLE CREEK   MOSUNNY   15   2  56 VRB3      30.16F
6HR MIN TEMP:   7; 6HR MAX TEMP:  15; 6HR PCP: TRACE;

BENTON HARBOR  SUNNY     12   5  73 N8        30.22R WCI   0
6HR MIN TEMP:   8; 6HR MAX TEMP:  13; 6HR PCP: TRACE;

BIG RAPIDS     SUNNY      9  -7  49 N8        30.19F WCI  -4
6HR MIN TEMP:  -3; 6HR MAX TEMP:   9;

COLDWATER      PTSUNNY   13   2  63 N5        30.15S WCI   5
6HR MIN TEMP:  10; 6HR MAX TEMP:  13;

FREMONT        FAIR       9  -9  45 N9        30.22F WCI  -5
HOLLAND        SUNNY     12  -3  51 N6        30.23S WCI   3
6HR MIN TEMP:   7; 6HR MAX TEMP:  12; 6HR PCP: TRACE;

GRAND RAPIDS   PTSUNNY   12  -4  48 VRB3      30.20F
6HR MIN TEMP:   5; 6HR MAX TEMP:  13; 6HR PCP: TRACE;

IONIA          FAIR      10  -2  58 NE6       30.19S WCI   1
KALAMAZOO      MOSUNNY   14   2  58 N3        30.18S
6HR MIN TEMP:   8; 6HR MAX TEMP:  14; 6HR PCP: TRACE;

LUDINGTON      SUNNY     12  -9  39 NE7       30.27S WCI   1
MARSHALL       PTSUNNY   11   1  64 N3        30.16S
MOUNT PLEASANT SUNNY      9  -3  60 NW7       30.21S WCI  -3
6HR MIN TEMP:   0; 6HR MAX TEMP:   9;

MUSKEGON       MOSUNNY   13  -9  37 NE8       30.25S WCI   2
6HR MIN TEMP:   2; 6HR MAX TEMP:  13;

SOUTH HAVEN    SUNNY     14   1  57 NW8       30.22S WCI   2
$$
MIZ016>042-261900-
NORTHERN LOWER MICHIGAN

CITY           SKY/WX    TMP DP  RH WIND       PRES   REMARKS
BEAVER ISLAND  SUNNY      4 -12  49 W3        30.31R
6HR MIN TEMP: -22; 6HR MAX TEMP:   4;

BELLAIRE       SUNNY      8 -10  44 N7        30.29S WCI  -4
6HR MIN TEMP: -22; 6HR MAX TEMP:   8;

CADILLAC       SUNNY      6  -8  53 N8        30.16F WCI  -7
CHARLEVOIX     SUNNY      2  -5  72 NW7       30.33S WCI -11
6HR MIN TEMP: -18; 6HR MAX TEMP:   2;

FRANKFORT      SUNNY      8  -6  53 N10G16    30.29S WCI  -7
GAYLORD        SUNNY      5  -9  52 N7        30.18S WCI  -7
6HR MIN TEMP: -21; 6HR MAX TEMP:   5;

GRAYLING       MOSUNNY    8  -6  53 N7        30.19F WCI  -3
HARBOR SPRINGS SUNNY      1  -6  70 SW8       30.27F WCI -12
HOUGHTON LAKE  MOSUNNY    8  -7  50 NW7       30.18S WCI  -3
6HR MIN TEMP: -12; 6HR MAX TEMP:   8;

MANISTEE       SUNNY      9  -8  47 N10       30.27S WCI  -6
OSCODA         CLOUDY     9  -1  64 N10       30.22S HAZE    WCI  -5
PELLSTON       SUNNY      5 -11  47 NW7       30.28S WCI  -7
6HR MIN TEMP: -30; 6HR MAX TEMP:   6;

ROGERS CITY    PTSUNNY    6  -4  62 NW10      30.27F WCI  -9
TRAVERSE CITY  MOSUNNY    4  -7  60 NE7       30.28S WCI  -8
6HR MIN TEMP: -17; 6HR MAX TEMP:   4; 6HR PCP: TRACE;

$$
MIZ007>008-015-261900-
EASTERN UPPER MICHIGAN

CITY           SKY/WX    TMP DP  RH WIND       PRES   REMARKS
KINROSS        SUNNY      5  -9  51 N12G17    30.26S WCI -11
6HR MIN TEMP: -11; 6HR MAX TEMP:  18;

MACKINAC ISLAN SUNNY      3 -10  54 W5        30.27S WCI  -7
6HR MIN TEMP: -11; 6HR MAX TEMP:   6;

NEWBERRY       PTSUNNY    4  -7  61 N10       30.26F WCI -12
S. S. MARIE    SUNNY      3 -13  47 W12       30.27S WCI -13
6HR MIN TEMP: -17; 6HR MAX TEMP:   3;

MUNISING         N/A      6  -6  57 NW12      30.33S WCI  -9
6HR MIN TEMP: -18; 6HR MAX TEMP:   6; 6HR PCP:  0.05;

$$
MIZ004>006-011>014-085-261900-
CENTRAL UPPER MICHIGAN

CITY           SKY/WX    TMP DP  RH WIND       PRES   REMARKS
MANISTIQUE     MOSUNNY    6  -7  54 N3        30.29F
6HR MIN TEMP: -20; 6HR MAX TEMP:   7;

ESCANABA       PTSUNNY    7 -11  43 N10G16    30.32F WCI  -8
6HR MIN TEMP:  -9; 6HR MAX TEMP:   7;

MENOMINEE      SUNNY      7  -6  56 NE7       30.32S WCI  -5
6HR MIN TEMP:  -8; 6HR MAX TEMP:   7;

SAWYER-GWINN   LGT SNOW   5  -4  66 N13       30.26S WCI -12
$$
MIZ001>003-009>011-084-261900-
WESTERN UPPER MICHIGAN

CITY           SKY/WX    TMP DP  RH WIND       PRES   REMARKS
IRON MOUNTAIN  SUNNY      6  -7  54 N12       30.26F WCI  -9
6HR MIN TEMP: -22; 6HR MAX TEMP:   6;

HOUGHTON       SUNNY      1 -10  60 NW14      30.30S WCI -17
6HR MIN TEMP: -10; 6HR MAX TEMP:   1;

COPPER HARBOR    N/A      2  -8  63 N15       30.35R WCI -17
6HR MIN TEMP:  -9; 6HR MAX TEMP:   2;

IRONWOOD       PTSUNNY    3  -9  55 N7        30.31F WCI  -9
6HR MIN TEMP: -24; 6HR MAX TEMP:   3;

$$

ABBREVIATIONS USED IN REMARKS
   TC - TEMPERATURE IN CELSIUS
  WCI - WIND CHILL INDEX
   HX - HEAT INDEX
  VSB - VISIBILITY



USA.gov is the U.S. government's official web portal to all federal, state and local government web resources and services.